TimeEST,TemperatureF,Dew PointF,Humidity,Sea Level PressureIn,VisibilityMPH,Wind Direction,Wind SpeedMPH,Gust SpeedMPH,PrecipitationIn,Events,Conditions,WindDirDegrees,DateUTC
12:53 AM,32.0,14.0,48,30.26,10.0,South,12.7,-,N/A,,Unknown,190,2013-01-19 05:53:00
1:53 AM,32.0,12.9,45,30.25,10.0,South,12.7,-,N/A,,Overcast,190,2013-01-19 06:53:00
2:53 AM,34.0,10.9,38,30.24,10.0,South,13.8,-,N/A,,Overcast,180,2013-01-19 07:53:00
3:53 AM,33.1,10.9,40,30.23,10.0,South,12.7,-,N/A,,Partly Cloudy,190,2013-01-19 08:53:00
4:53 AM,34.0,12.0,40,30.21,10.0,South,12.7,-,N/A,,Clear,190,2013-01-19 09:53:00
5:53 AM,34.0,14.0,44,30.21,10.0,SSW,10.4,-,N/A,,Clear,200,2013-01-19 10:53:00
6:53 AM,37.0,15.1,41,30.20,10.0,SSW,13.8,-,N/A,,Clear,210,2013-01-19 11:53:00
7:53 AM,37.9,15.1,39,30.19,10.0,SSW,15.0,21.9,0.01,,Clear,210,2013-01-19 12:53:00
8:53 AM,39.9,16.0,38,30.19,10.0,SW,19.6,27.6,0.02,,Partly Cloudy,220,2013-01-19 13:53:00
9:53 AM,43.0,17.1,35,30.19,10.0,SW,18.4,31.1,0.02,,Clear,220,2013-01-19 14:53:00
10:53 AM,45.0,18.0,34,30.18,10.0,SW,20.7,32.2,N/A,,Clear,230,2013-01-19 15:53:00
11:53 AM,46.9,18.0,32,30.13,10.0,SW,23.0,31.1,N/A,,Clear,220,2013-01-19 16:53:00
12:53 PM,50.0,16.0,26,30.09,10.0,SW,19.6,32.2,N/A,,Clear,230,2013-01-19 17:53:00
1:53 PM,51.1,15.1,24,30.04,10.0,SW,19.6,31.1,N/A,,Clear,220,2013-01-19 18:53:00
2:53 PM,52.0,16.0,24,30.01,10.0,SSW,17.3,23.0,N/A,,Clear,210,2013-01-19 19:53:00
3:53 PM,52.0,17.1,25,29.99,10.0,SSW,19.6,28.8,N/A,,Clear,210,2013-01-19 20:53:00
4:53 PM,51.1,18.0,27,29.97,10.0,SSW,17.3,24.2,N/A,,Clear,200,2013-01-19 21:53:00
5:53 PM,48.9,18.0,29,29.95,10.0,South,12.7,-,N/A,,Clear,190,2013-01-19 22:53:00
6:53 PM,48.0,18.0,30,29.93,10.0,South,12.7,-,N/A,,Clear,190,2013-01-19 23:53:00
7:53 PM,46.9,18.0,32,29.91,10.0,South,13.8,-,N/A,,Clear,180,2013-01-20 00:53:00
8:53 PM,46.9,18.0,32,29.88,10.0,South,15.0,23.0,N/A,,Clear,190,2013-01-20 01:53:00
9:53 PM,48.0,19.0,32,29.86,10.0,SSW,16.1,25.3,N/A,,Clear,200,2013-01-20 02:53:00
10:53 PM,48.0,21.0,34,29.86,10.0,SW,16.1,31.1,N/A,,Clear,220,2013-01-20 03:53:00
11:53 PM,46.4,21.2,37,29.82,10.0,SSW,24.2,39.1,N/A,,Clear,210,2013-01-20 04:53:00